Regional Weather Roundup
Issued by NWS

Home | Current Version | Previous Version | Graphics & Text | Print | Product List | Glossary On
Versions: 1 2 3 4 5 6 7 8 9 10 11 12 13 14 15 16 17 18 19 20 21 22 23 24 25 26 27 28 29 30 31 32 33 34 35 36 37 38 39 40 41 42 43 44 45 46 47 48 49 50
000
ASUS43 KIND 170709
RWRIN

WEATHER ROUNDUP FOR INDIANA
NATIONAL WEATHER SERVICE INDIANAPOLIS IN
300 AM EDT WED SEP 17 2014

NOTE: "FAIR" INDICATES FEW OR NO CLOUDS BELOW 12,000 FEET WITH NO
SIGNIFICANT WEATHER AND/OR OBSTRUCTIONS TO VISIBILITY.

* - STATION DOES NOT REPORT WEATHER SUCH AS PRECIPITATION OR FOG.

+ - STATION NOT QUALITY CONTROLLED BY THE NATIONAL WEATHER SERVICE.
    USE DATA WITH CAUTION...ESPECIALLY DEWPOINT AND RELATIVE
    HUMIDITY OBSERVATIONS.

INZ001>003-010>013-019-020-170800-
NORTHWEST INDIANA

CITY           SKY/WX    TMP DP  RH WIND       PRES   REMARKS
GARY /AIRPORT/ CLEAR     46  44  95 CALM      30.08F FOG
KNOX *+        CLEAR     43  42  95 CALM      30.09S
LA PORTE +     CLEAR     42  42 100 CALM      30.09F
MICHIGAN CITY+ CLEAR     43  43 100 CALM      30.08F FOG
MONTICELLO +   CLEAR     46  46  99 CALM      30.07F
RENSSELAER +   CLEAR     43  43 100 CALM      30.09S FOG
VALPARAISO     CLEAR     45  44  97 CALM      30.09F FOG

$$

LMZ046-743>745-170800-
SOUTHERN LAKE MICHIGAN

STATION/POSITION TIME  TEMP WIND        PRES
                       AIR  DIR/SP/G
                 (UTC) (F)  (DEG/KT/KT) (MB)
MICHIGAN CITY    0700   50  120/  3/  4   N/A

$$

INZ004-005-014>016-021>024-170800-
NORTH CENTRAL INDIANA

CITY           SKY/WX    TMP DP  RH WIND       PRES   REMARKS
GOSHEN         CLEAR     45  43  93 CALM      30.09S
LOGANSPORT +   CLEAR     43  43 100 CALM      30.09F FOG
PERU/GRISSOM   CLEAR     47  47 100 S2        30.09S
ROCHESTER +    CLEAR     46  46 100 CALM      30.09F
SOUTH BEND     CLEAR     44  41  89 CALM      30.09S
WARSAW +       CLEAR     43  43 100 CALM      30.09F FOG

$$

INZ006>009-017-018-025>027-170800-
NORTHEAST INDIANA

CITY           SKY/WX    TMP DP  RH WIND       PRES   REMARKS
ANGOLA *+      CLEAR     45  45 100 CALM      30.09S
AUBURN +       CLEAR     45  43  93 CALM      30.10S
FORT WAYNE     CLEAR     46  44  93 CALM      30.10S
HUNTINGTON +   CLEAR     45  45  98 CALM      30.09F

$$

INZ028-029-035-036-043>045-051>053-170800-
WEST CENTRAL INDIANA

CITY           SKY/WX    TMP DP  RH WIND       PRES   REMARKS
GREENCASTLE +  CLEAR     45  45 100 CALM      30.10F FOG
LAFAYETTE      PTCLDY    46  45  96 MISG      30.09F
TERRE HAUTE    FOG       45  44  97 CALM      30.09F VSB 1/4

$$

INZ030>032-037>040-046>048-054>057-064-065-170800-
CENTRAL INDIANA

CITY           SKY/WX    TMP DP  RH WIND       PRES   REMARKS
CP ATTERBURY + FOG       43  41  93 CALM      30.11F VSB<1/4
FRANKFORT +    CLEAR    N/A N/A N/A CALM      30.10S HAZE
INDIANAPOLIS   PTCLDY    50  48  93 SW3       30.09F FOG
-EAGLE CREEK   CLEAR     49  46  90 S3        30.09F FOG
KOKOMO *+      CLEAR     45  41  87 S5        30.10S
MARION +       CLEAR     44  43  98 CALM      30.10F FOG
MT COMFORT *+    N/A     43 N/A N/A CALM      30.10F VSB 1/2
SHELBYVILLE    FOG       46  43  89 CALM      30.10S VSB 1/4
ZIONSVILLE +   FOG       46  44  91 CALM      30.11S VSB 1/4

$$

INZ033-034-041-042-049-050-058-059-170800-
EAST CENTRAL INDIANA

CITY           SKY/WX    TMP DP  RH WIND       PRES   REMARKS
MUNCIE         CLEAR     48  45  89 CALM      30.10F

$$

INZ060-061-067>069-081>083-085>088-170800-
SOUTHWEST INDIANA

CITY           SKY/WX    TMP DP  RH WIND       PRES   REMARKS
EVANSVILLE     CLEAR     49  47  93 CALM      30.10F
WASHINGTON +   FOG       44  44 100 CALM      30.10S VSB 1/2

$$

INZ062-063-066-070>080-084-089>092-170800-
SOUTH CENTRAL AND SOUTHEAST INDIANA

CITY           SKY/WX    TMP DP  RH WIND       PRES   REMARKS
BEDFORD +      FOG       46  43  87 CALM      30.10  VSB 3/4
BLOOMINGTON    CLEAR     45  44  97 CALM      30.10F FOG

$$




USA.gov is the U.S. government's official web portal to all federal, state and local government web resources and services.